QPF
0.01 0.01 0.01 0.00 0.00 0.01 0.01 0.01 0.01 0.00 0.00 0.00 0.00 0.00 0.01 0.01 0.01 0.02 0.02 0.02 0.01 0.01 0.01 0.00 0.01 0.02 0.03 0.01 0.01 0.01 0.01 0.01 0.01 0.01 0.02 0.04 0.03 0.02 0.02 0.02 0.01 0.01 0.01 0.01
0.01 0.01 0.01 0.00 0.01 0.01 0.01 0.01 0.01 0.00 0.01 0.01 0.01 0.01 0.01 0.01 0.01 0.00 0.01 0.01 0.01 0.02 0.01 0.01 0.01 0.01 0.02 0.03 0.01 0.01 0.01 0.00 0.00 0.00 0.01 0.02 0.02 0.02 0.02 0.02 0.01 0.01 0.01 0.01
0.01 0.01 0.01 0.00 0.01 0.01 0.01 0.00 0.00 0.00 0.01 0.01 0.01 0.01 0.01 0.01 0.01 0.01 0.01 0.01 0.01 0.01 0.01 0.01 0.01 0.00 0.00 0.02 0.01 0.01 0.00 0.00 0.00 0.00 0.00 0.01 0.01 0.01 0.01 0.02 0.01 0.00 0.01 0.01
0.01 0.01 0.01 0.01 0.01 0.01 0.00 0.00 0.00 0.00 0.01 0.01 0.02 0.02 0.01 0.01 0.02 0.02 0.02 0.01 0.01 0.01 0.01 0.01 0.01 0.01 0.00 0.01 0.01 0.01 0.01 0.00 0.00 0.00 0.00 0.01 0.01 0.01 0.01 0.01 0.01 0.01 0.01 0.01
0.01 0.01 0.01 0.01 0.01 0.01 0.01 0.01 0.01 0.01 0.02 0.02 0.03 0.02 0.01 0.01 0.01 0.01 0.01 0.01 0.02 0.02 0.01 0.01 0.01 0.01 0.01 0.01 0.00 0.00 0.01 0.01 0.01 0.00 0.00 0.00 0.01 0.01 0.01 0.01 0.01 0.01 0.01 0.01
0.01 0.01 0.01 0.01 0.02 0.02 0.01 0.01 0.01 0.01 0.02 0.02 0.02 0.02 0.02 0.01 0.01 0.01 0.01 0.01 0.01 0.02 0.02 0.02 0.02 0.02 0.01 0.01 0.01 0.01 0.01 0.01 0.01 0.00 0.00 0.00 0.01 0.01 0.01 0.01 0.01 0.01 0.01 0.01
0.01 0.02 0.02 0.02 0.02 0.02 0.02 0.01 0.01 0.02 0.02 0.01 0.01 0.01 0.01 0.02 0.01 0.01 0.00 0.00 0.01 0.01 0.02 0.02 0.04 0.02 0.01 0.01 0.01 0.01 0.02 0.02 0.02 0.01 0.00 0.00 0.01 0.01 0.01 0.02 0.02 0.03 0.02 0.02
0.01 0.01 0.01 0.02 0.03 0.03 0.03 0.02 0.02 0.02 0.01 0.01 0.01 0.01 0.01 0.02 0.01 0.01 0.01 0.01 0.01 0.01 0.01 0.02 0.02 0.01 0.01 0.01 0.01 0.02 0.03 0.03 0.03 0.02 0.02 0.01 0.01 0.01 0.02 0.02 0.02 0.02 0.02 0.02
0.01 0.01 0.01 0.01 0.02 0.02 0.02 0.02 0.02 0.02 0.02 0.02 0.02 0.02 0.02 0.02 0.02 0.01 0.01 0.01 0.01 0.01 0.02 0.02 0.02 0.02 0.02 0.01 0.01 0.02 0.03 0.03 0.03 0.03 0.02 0.02 0.02 0.02 0.02 0.03 0.03 0.03 0.03 0.03
0.01 0.01 0.01 0.01 0.01 0.01 0.01 0.01 0.02 0.02 0.02 0.02 0.02 0.02 0.01 0.01 0.02 0.02 0.02 0.03 0.03 0.03 0.03 0.03 0.02 0.02 0.02 0.02 0.02 0.03 0.03 0.03 0.03 0.03 0.04 0.05 0.04 0.03 0.03 0.03 0.03 0.03 0.03 0.04
0.01 0.01 0.02 0.01 0.01 0.01 0.01 0.02 0.02 0.02 0.02 0.02 0.01 0.01 0.01 0.01 0.01 0.02 0.03 0.06 0.06 0.04 0.04 0.04 0.03 0.02 0.02 0.02 0.03 0.03 0.03 0.03 0.03 0.03 0.03 0.05 0.07 0.07 0.06 0.06 0.04 0.03 0.02 0.02
0.01 0.02 0.03 0.03 0.02 0.01 0.01 0.01 0.01 0.01 0.01 0.01 0.01 0.01 0.01 0.01 0.01 0.01 0.01 0.05 0.08 0.06 0.03 0.02 0.02 0.02 0.02 0.02 0.02 0.03 0.03 0.03 0.02 0.02 0.02 0.02 0.03 0.03 0.04 0.04 0.03 0.02 0.01 0.01
0.01 0.02 0.03 0.04 0.03 0.02 0.01 0.02 0.02 0.02 0.02 0.02 0.02 0.02 0.02 0.01 0.02 0.02 0.03 0.04 0.05 0.05 0.02 0.01 0.01 0.01 0.01 0.01 0.01 0.01 0.01 0.01 0.02 0.02 0.02 0.02 0.02 0.02 0.02 0.01 0.01 0.01 0.01 0.01
0.02 0.03 0.04 0.05 0.06 0.05 0.03 0.02 0.02 0.02 0.02 0.01 0.01 0.02 0.02 0.02 0.02 0.02 0.04 0.06 0.05 0.03 0.02 0.01 0.01 0.01 0.00 0.01 0.01 0.01 0.01 0.01 0.01 0.01 0.01 0.02 0.02 0.02 0.02 0.01 0.01 0.01 0.01 0.01
0.05 0.05 0.05 0.05 0.06 0.06 0.04 0.03 0.03 0.02 0.02 0.01 0.01 0.01 0.02 0.03 0.03 0.02 0.02 0.04 0.05 0.04 0.03 0.02 0.01 0.01 0.00 0.00 0.01 0.01 0.00 0.00 0.00 0.00 0.01 0.01 0.01 0.01 0.01 0.01 0.01 0.01 0.01 0.01
0.06 0.05 0.04 0.03 0.04 0.05 0.04 0.03 0.02 0.01 0.01 0.01 0.01 0.01 0.01 0.01 0.02 0.02 0.02 0.02 0.03 0.03 0.03 0.02 0.02 0.01 0.01 0.00 0.00 0.01 0.01 0.01 0.01 0.01 0.01 0.01 0.01 0.01 0.01 0.01 0.01 0.01 0.01 0.01
0.06 0.07 0.06 0.04 0.03 0.03 0.03 0.02 0.02 0.01 0.01 0.01 0.01 0.01 0.01 0.01 0.01 0.01 0.02 0.02 0.01 0.01 0.01 0.01 0.01 0.01 0.01 0.01 0.01 0.01 0.01 0.01 0.01 0.01 0.01 0.01 0.01 0.01 0.00 0.00 0.00 0.00 0.01 0.01
0.05 0.07 0.07 0.05 0.04 0.03 0.02 0.01 0.01 0.01 0.01 0.01 0.01 0.01 0.01 0.01 0.01 0.01 0.02 0.01 0.01 0.01 0.01 0.01 0.01 0.02 0.02 0.01 0.01 0.01 0.02 0.01 0.01 0.01 0.02 0.01 0.01 0.01 0.01 0.01 0.01 0.01 0.01 0.02
0.04 0.05 0.05 0.05 0.04 0.03 0.02 0.01 0.01 0.01 0.01 0.01 0.01 0.01 0.01 0.01 0.01 0.02 0.02 0.01 0.01 0.01 0.01 0.01 0.01 0.02 0.02 0.01 0.02 0.02 0.02 0.02 0.01 0.02 0.02 0.01 0.01 0.01 0.01 0.01 0.02 0.02 0.02 0.02
0.03 0.03 0.03 0.03 0.03 0.03 0.03 0.02 0.01 0.01 0.01 0.01 0.01 0.01 0.01 0.02 0.02 0.02 0.02 0.02 0.01 0.01 0.01 0.01 0.01 0.01 0.02 0.02 0.01 0.01 0.01 0.01 0.02 0.02 0.02 0.02 0.02 0.02 0.02 0.02 0.02 0.03 0.03 0.03
0.04 0.04 0.03 0.03 0.03 0.03 0.03 0.02 0.02 0.02 0.02 0.01 0.01 0.01 0.01 0.02 0.02 0.02 0.01 0.01 0.01 0.00 0.00 0.00 0.01 0.01 0.01 0.01 0.01 0.01 0.01 0.01 0.03 0.03 0.02 0.02 0.01 0.02 0.02 0.02 0.02 0.03 0.03 0.04
0.02 0.03 0.03 0.04 0.03 0.03 0.02 0.02 0.01 0.01 0.01 0.01 0.01 0.02 0.02 0.03 0.03 0.02 0.01 0.01 0.01 0.01 0.00 0.00 0.01 0.01 0.01 0.01 0.01 0.01 0.01 0.01 0.02 0.04 0.03 0.02 0.02 0.01 0.01 0.01 0.01 0.02 0.02 0.03
0.02 0.02 0.01 0.02 0.02 0.02 0.02 0.02 0.01 0.01 0.01 0.01 0.01 0.02 0.03 0.04 0.03 0.02 0.01 0.00 0.01 0.01 0.01 0.01 0.01 0.01 0.01 0.01 0.01 0.01 0.01 0.01 0.01 0.01 0.02 0.02 0.02 0.01 0.01 0.01 0.01 0.01 0.01 0.01
0.02 0.02 0.01 0.02 0.02 0.02 0.02 0.01 0.01 0.01 0.01 0.01 0.02 0.03 0.04 0.04 0.02 0.01 0.00 0.01 0.01 0.01 0.01 0.01 0.01 0.01 0.01 0.00 0.00 0.01 0.01 0.01 0.01 0.01 0.01 0.01 0.01 0.01 0.01 0.01 0.02 0.02 0.01 0.01
0.02 0.02 0.02 0.02 0.02 0.01 0.01 0.01 0.01 0.01 0.01 0.02 0.03 0.03 0.04 0.04 0.03 0.01 0.00 0.00 0.00 0.01 0.01 0.01 0.01 0.01 0.00 0.00 0.00 0.00 0.00 0.01 0.01 0.01 0.01 0.01 0.01 0.01 0.01 0.01 0.01 0.01 0.01 0.01
0.02 0.02 0.02 0.02 0.02 0.02 0.02 0.02 0.01 0.01 0.02 0.03 0.03 0.02 0.03 0.04 0.04 0.03 0.01 0.00 0.00 0.00 0.01 0.01 0.00 0.00 0.00 0.00 0.00 0.01 0.01 0.01 0.01 0.01 0.01 0.01 0.01 0.01 0.01 0.01 0.01 0.01 0.01 0.01
0.02 0.02 0.01 0.02 0.03 0.02 0.02 0.02 0.01 0.01 0.02 0.03 0.02 0.02 0.02 0.03 0.03 0.03 0.02 0.00 0.00 0.01 0.01 0.01 0.01 0.00 0.00 0.00 0.00 0.01 0.01 0.01 0.01 0.01 0.01 0.01 0.01 0.01 0.01 0.02 0.02 0.02 0.02 0.02
MSLP
1015.63 1015.85 1016.02 1016.12 1016.13 1016.02 1015.76 1015.33 1014.75 1014.04 1013.24 1012.42 1011.66 1011.01 1010.53 1010.25 1010.17 1010.27 1010.51 1010.84 1011.20 1011.55 1011.85 1012.08 1012.25 1012.36 1012.45 1012.52 1012.61 1012.71 1012.83 1012.97 1013.12 1013.28 1013.45 1013.61 1013.78 1013.95 1014.13 1014.31 1014.51 1014.70 1014.89 1015.07
1015.84 1015.96 1015.97 1015.87 1015.65 1015.31 1014.85 1014.28 1013.63 1012.92 1012.20 1011.52 1010.91 1010.43 1010.09 1009.91 1009.88 1009.98 1010.17 1010.43 1010.70 1010.98 1011.23 1011.45 1011.64 1011.81 1011.95 1012.09 1012.23 1012.36 1012.49 1012.61 1012.73 1012.85 1012.97 1013.10 1013.24 1013.41 1013.60 1013.82 1014.04 1014.27 1014.49 1014.69
1016.01 1016.01 1015.86 1015.56 1015.14 1014.60 1013.98 1013.31 1012.61 1011.92 1011.27 1010.71 1010.24 1009.89 1009.67 1009.56 1009.55 1009.62 1009.76 1009.94 1010.14 1010.35 1010.57 1010.78 1011.00 1011.22 1011.44 1011.64 1011.83 1012.00 1012.15 1012.26 1012.35 1012.43 1012.51 1012.61 1012.73 1012.89 1013.10 1013.33 1013.58 1013.84 1014.07 1014.28
1016.09 1015.95 1015.64 1015.18 1014.59 1013.90 1013.16 1012.41 1011.69 1011.04 1010.47 1010.00 1009.65 1009.41 1009.26 1009.19 1009.19 1009.23 1009.31 1009.41 1009.54 1009.70 1009.89 1010.11 1010.36 1010.63 1010.92 1011.19 1011.44 1011.65 1011.81 1011.92 1011.99 1012.04 1012.09 1012.16 1012.26 1012.42 1012.62 1012.87 1013.13 1013.39 1013.63 1013.84
1016.03 1015.74 1015.28 1014.68 1013.95 1013.16 1012.36 1011.58 1010.87 1010.26 1009.76 1009.38 1009.12 1008.96 1008.86 1008.81 1008.80 1008.80 1008.82 1008.87 1008.94 1009.06 1009.23 1009.46 1009.74 1010.07 1010.41 1010.75 1011.05 1011.30 1011.48 1011.60 1011.66 1011.69 1011.72 1011.77 1011.86 1012.00 1012.20 1012.44 1012.70 1012.96 1013.18 1013.36
1015.78 1015.35 1014.76 1014.04 1013.23 1012.38 1011.55 1010.78 1010.10 1009.55 1009.13 1008.83 1008.64 1008.52 1008.45 1008.41 1008.37 1008.33 1008.30 1008.29 1008.32 1008.41 1008.57 1008.82 1009.14 1009.51 1009.91 1010.30 1010.66 1010.95 1011.16 1011.30 1011.37 1011.39 1011.41 1011.45 1011.52 1011.66 1011.84 1012.07 1012.31 1012.54 1012.74 1012.88
1015.33 1014.77 1014.08 1013.28 1012.43 1011.57 1010.76 1010.02 1009.41 1008.92 1008.56 1008.32 1008.18 1008.09 1008.02 1007.97 1007.90 1007.81 1007.74 1007.68 1007.68 1007.75 1007.91 1008.17 1008.52 1008.94 1009.39 1009.85 1010.25 1010.59 1010.85 1011.01 1011.11 1011.15 1011.17 1011.21 1011.27 1011.39 1011.55 1011.75 1011.96 1012.16 1012.32 1012.42
1014.74 1014.08 1013.32 1012.49 1011.63 1010.80 1010.03 1009.36 1008.81 1008.38 1008.08 1007.88 1007.76 1007.67 1007.59 1007.49 1007.38 1007.25 1007.13 1007.03 1007.00 1007.06 1007.23 1007.51 1007.89 1008.35 1008.86 1009.36 1009.83 1010.22 1010.53 1010.75 1010.88 1010.95 1010.99 1011.03 1011.10 1011.20 1011.33 1011.50 1011.67 1011.82 1011.94 1012.00
1014.09 1013.37 1012.58 1011.76 1010.93 1010.15 1009.45 1008.84 1008.36 1007.99 1007.72 1007.54 1007.41 1007.30 1007.18 1007.03 1006.87 1006.69 1006.51 1006.38 1006.32 1006.37 1006.54 1006.83 1007.24 1007.74 1008.29 1008.85 1009.38 1009.83 1010.20 1010.48 1010.66 1010.78 1010.85 1010.91 1010.97 1011.05 1011.16 1011.28 1011.41 1011.52 1011.60 1011.63
1013.50 1012.77 1012.00 1011.21 1010.44 1009.73 1009.09 1008.56 1008.13 1007.79 1007.54 1007.35 1007.19 1007.03 1006.85 1006.65 1006.41 1006.17 1005.95 1005.77 1005.68 1005.71 1005.87 1006.17 1006.60 1007.12 1007.71 1008.31 1008.90 1009.42 1009.85 1010.19 1010.44 1010.60 1010.71 1010.79 1010.86 1010.92 1011.00 1011.08 1011.17 1011.24 1011.29 1011.31
1013.07 1012.38 1011.65 1010.93 1010.23 1009.60 1009.03 1008.55 1008.16 1007.84 1007.58 1007.36 1007.15 1006.93 1006.68 1006.40 1006.09 1005.79 1005.50 1005.28 1005.16 1005.16 1005.30 1005.59 1006.01 1006.54 1007.14 1007.78 1008.40 1008.97 1009.46 1009.86 1010.17 1010.39 1010.54 1010.64 1010.70 1010.76 1010.81 1010.86 1010.90 1010.94 1010.97 1010.99
1012.88 1012.25 1011.60 1010.96 1010.34 1009.77 1009.27 1008.83 1008.46 1008.14 1007.86 1007.59 1007.32 1007.03 1006.71 1006.35 1005.98 1005.60 1005.26 1004.99 1004.82 1004.78 1004.88 1005.13 1005.52 1006.03 1006.62 1007.26 1007.89 1008.49 1009.03 1009.48 1009.83 1010.10 1010.28 1010.40 1010.47 1010.52 1010.54 1010.56 1010.58 1010.60 1010.63 1010.65
1012.91 1012.37 1011.81 1011.24 1010.70 1010.20 1009.74 1009.33 1008.97 1008.64 1008.33 1008.02 1007.69 1007.33 1006.94 1006.52 1006.09 1005.66 1005.26 1004.94 1004.71 1004.61 1004.65 1004.84 1005.17 1005.62 1006.17 1006.77 1007.39 1007.99 1008.54 1009.01 1009.40 1009.70 1009.91 1010.05 1010.13 1010.17 1010.18 1010.18 1010.18 1010.19 1010.22 1010.26
1013.11 1012.66 1012.18 1011.69 1011.21 1010.76 1010.34 1009.95 1009.59 1009.25 1008.91 1008.57 1008.20 1007.80 1007.36 1006.90 1006.43 1005.95 1005.51 1005.13 1004.84 1004.67 1004.63 1004.73 1004.97 1005.33 1005.79 1006.32 1006.88 1007.45 1007.98 1008.45 1008.86 1009.17 1009.41 1009.56 1009.66 1009.70 1009.71 1009.70 1009.70 1009.70 1009.73 1009.79
1013.36 1012.99 1012.59 1012.16 1011.74 1011.33 1010.94 1010.57 1010.21 1009.87 1009.52 1009.16 1008.78 1008.36 1007.91 1007.44 1006.94 1006.45 1005.97 1005.54 1005.19 1004.94 1004.80 1004.79 1004.91 1005.14 1005.49 1005.91 1006.39 1006.88 1007.37 1007.82 1008.21 1008.53 1008.78 1008.96 1009.06 1009.12 1009.14 1009.14 1009.14 1009.15 1009.19 1009.26
1013.58 1013.27 1012.91 1012.54 1012.16 1011.79 1011.42 1011.07 1010.73 1010.40 1010.06 1009.71 1009.34 1008.94 1008.51 1008.05 1007.57 1007.07 1006.58 1006.11 1005.70 1005.36 1005.12 1004.98 1004.96 1005.06 1005.26 1005.55 1005.91 1006.30 1006.72 1007.12 1007.48 1007.80 1008.06 1008.25 1008.38 1008.45 1008.49 1008.51 1008.52 1008.54 1008.59 1008.67
1013.66 1013.39 1013.08 1012.74 1012.40 1012.05 1011.72 1011.39 1011.08 1010.77 1010.47 1010.16 1009.83 1009.48 1009.09 1008.67 1008.22 1007.74 1007.25 1006.76 1006.30 1005.88 1005.54 1005.28 1005.11 1005.05 1005.10 1005.24 1005.46 1005.74 1006.06 1006.39 1006.72 1007.01 1007.27 1007.47 1007.62 1007.73 1007.80 1007.84 1007.87 1007.91 1007.96 1008.05
1013.59 1013.34 1013.05 1012.74 1012.42 1012.10 1011.80 1011.51 1011.24 1010.98 1010.73 1010.47 1010.21 1009.92 1009.59 1009.23 1008.83 1008.38 1007.90 1007.41 1006.91 1006.43 1006.00 1005.62 1005.32 1005.12 1005.01 1005.00 1005.08 1005.23 1005.44 1005.69 1005.96 1006.22 1006.46 1006.68 1006.85 1006.98 1007.08 1007.15 1007.21 1007.26 1007.32 1007.40
1013.38 1013.14 1012.86 1012.57 1012.28 1011.99 1011.72 1011.47 1011.25 1011.05 1010.86 1010.67 1010.47 1010.25 1010.00 1009.70 1009.35 1008.94 1008.49 1008.00 1007.48 1006.96 1006.45 1005.98 1005.57 1005.24 1004.99 1004.84 1004.78 1004.81 1004.90 1005.06 1005.25 1005.47 1005.68 1005.88 1006.06 1006.22 1006.34 1006.44 1006.52 1006.59 1006.66 1006.73
1013.11 1012.86 1012.60 1012.32 1012.05 1011.80 1011.57 1011.37 1011.20 1011.05 1010.91 1010.79 1010.65 1010.49 1010.30 1010.05 1009.75 1009.39 1008.96 1008.49 1007.96 1007.42 1006.87 1006.34 1005.84 1005.41 1005.05 1004.77 1004.59 1004.49 1004.47 1004.52 1004.63 1004.77 1004.94 1005.11 1005.28 1005.44 1005.58 1005.70 1005.80 1005.88 1005.96 1006.02
1012.84 1012.60 1012.35 1012.09 1011.85 1011.63 1011.44 1011.29 1011.16 1011.05 1010.96 1010.88 1010.79 1010.67 1010.51 1010.30 1010.04 1009.71 1009.31 1008.85 1008.34 1007.79 1007.23 1006.66 1006.12 1005.61 1005.17 1004.79 1004.49 1004.28 1004.14 1004.08 1004.08 1004.13 1004.23 1004.34 1004.48 1004.62 1004.76 1004.88 1005.00 1005.09 1005.18 1005.24
1012.67 1012.43 1012.19 1011.96 1011.76 1011.57 1011.42 1011.29 1011.20 1011.12 1011.05 1010.98 1010.90 1010.79 1010.65 1010.45 1010.20 1009.89 1009.51 1009.07 1008.58 1008.05 1007.49 1006.92 1006.36 1005.82 1005.31 1004.86 1004.47 1004.14 1003.89 1003.70 1003.58 1003.53 1003.52 1003.56 1003.64 1003.74 1003.85 1003.97 1004.09 1004.20 1004.29 1004.35
1012.61 1012.39 1012.18 1011.98 1011.81 1011.65 1011.53 1011.42 1011.33 1011.26 1011.19 1011.10 1011.00 1010.87 1010.71 1010.50 1010.24 1009.92 1009.56 1009.14 1008.67 1008.17 1007.64 1007.09 1006.53 1005.97 1005.43 1004.92 1004.45 1004.03 1003.66 1003.35 1003.10 1002.92 1002.80 1002.74 1002.73 1002.77 1002.85 1002.95 1003.06 1003.17 1003.27 1003.35
1012.69 1012.50 1012.31 1012.14 1011.99 1011.86 1011.75 1011.65 1011.55 1011.45 1011.35 1011.22 1011.07 1010.89 1010.67 1010.42 1010.13 1009.80 1009.43 1009.03 1008.59 1008.12 1007.63 1007.11 1006.57 1006.02 1005.47 1004.92 1004.39 1003.88 1003.40 1002.97 1002.59 1002.27 1002.03 1001.86 1001.75 1001.72 1001.74 1001.81 1001.91 1002.03 1002.15 1002.25
1012.87 1012.70 1012.55 1012.41 1012.28 1012.16 1012.04 1011.92 1011.79 1011.65 1011.48 1011.28 1011.06 1010.80 1010.51 1010.20 1009.86 1009.50 1009.12 1008.73 1008.31 1007.88 1007.43 1006.95 1006.45 1005.92 1005.37 1004.80 1004.21 1003.63 1003.06 1002.51 1002.01 1001.57 1001.20 1000.92 1000.72 1000.61 1000.57 1000.61 1000.69 1000.81 1000.95 1001.08
1013.11 1012.96 1012.83 1012.70 1012.58 1012.45 1012.32 1012.16 1011.98 1011.77 1011.52 1011.24 1010.92 1010.57 1010.20 1009.81 1009.42 1009.02 1008.63 1008.23 1007.84 1007.44 1007.03 1006.59 1006.13 1005.63 1005.09 1004.51 1003.89 1003.26 1002.61 1001.97 1001.37 1000.82 1000.34 999.96 999.67 999.49 999.40 999.40 999.47 999.60 999.75 999.91
1013.34 1013.22 1013.09 1012.96 1012.83 1012.68 1012.50 1012.29 1012.04 1011.75 1011.41 1011.04 1010.62 1010.18 1009.72 1009.26 1008.81 1008.38 1007.96 1007.56 1007.19 1006.81 1006.44 1006.05 1005.62 1005.15 1004.63 1004.05 1003.43 1002.76 1002.06 1001.36 1000.69 1000.06 999.50 999.03 998.68 998.43 998.30 998.28 998.34 998.46 998.63 998.82
Thickness
5707 5713 5713 5709 5708 5704 5699 5694 5687 5694 5696 5705 5709 5709 5709 5708 5704 5701 5698 5697 5695 5692 5689 5687 5684 5682 5680 5678 5676 5674 5670 5668 5666 5665 5663 5661 5658 5657 5655 5652 5651 5650 5647 5646
5702 5709 5708 5704 5706 5704 5701 5699 5695 5696 5697 5709 5709 5708 5705 5703 5700 5697 5696 5695 5693 5690 5687 5684 5682 5680 5678 5675 5673 5671 5668 5666 5665 5662 5660 5658 5656 5654 5652 5650 5649 5647 5645 5644
5684 5697 5699 5689 5700 5701 5699 5700 5698 5692 5698 5704 5701 5702 5700 5698 5697 5695 5694 5692 5690 5687 5685 5683 5681 5678 5675 5673 5670 5668 5665 5663 5661 5659 5657 5655 5653 5651 5649 5647 5646 5644 5643 5642
5674 5683 5673 5692 5707 5706 5699 5699 5700 5700 5700 5700 5698 5697 5697 5696 5693 5692 5691 5689 5688 5686 5683 5681 5678 5675 5672 5670 5667 5665 5663 5661 5659 5656 5654 5652 5649 5648 5646 5644 5643 5642 5640 5639
5663 5665 5674 5690 5699 5697 5692 5689 5696 5694 5694 5694 5694 5691 5689 5693 5691 5689 5688 5687 5685 5684 5681 5678 5675 5672 5669 5666 5664 5662 5660 5658 5656 5654 5651 5649 5647 5645 5644 5642 5640 5639 5638 5636
5659 5660 5660 5680 5696 5699 5691 5679 5692 5690 5688 5687 5686 5676 5679 5688 5687 5687 5686 5684 5682 5680 5677 5674 5672 5669 5665 5663 5660 5658 5658 5656 5654 5652 5649 5647 5645 5643 5641 5639 5638 5637 5635 5634
5656 5656 5665 5682 5689 5692 5672 5675 5688 5687 5685 5683 5679 5680 5682 5684 5683 5682 5681 5680 5678 5675 5671 5670 5667 5664 5661 5659 5657 5656 5654 5652 5650 5648 5646 5644 5642 5640 5638 5636 5634 5633 5631 5630
5649 5649 5657 5678 5680 5675 5675 5682 5683 5682 5681 5679 5676 5677 5677 5678 5678 5676 5675 5674 5672 5668 5665 5664 5662 5659 5656 5654 5653 5652 5649 5647 5646 5644 5642 5641 5637 5636 5634 5632 5630 5628 5626 5625
5650 5653 5664 5670 5673 5676 5676 5675 5676 5676 5676 5674 5671 5669 5670 5670 5670 5669 5669 5667 5665 5662 5660 5658 5656 5654 5652 5650 5649 5647 5644 5642 5640 5639 5638 5636 5634 5632 5630 5627 5625 5623 5621 5620
5644 5651 5658 5662 5666 5669 5671 5671 5672 5671 5669 5668 5664 5663 5662 5661 5660 5661 5661 5660 5658 5656 5654 5653 5651 5650 5648 5646 5644 5642 5638 5636 5634 5633 5632 5631 5629 5627 5625 5623 5621 5619 5617 5615
5634 5642 5648 5654 5656 5659 5661 5663 5663 5663 5662 5660 5658 5656 5655 5653 5653 5653 5653 5652 5651 5650 5648 5647 5645 5644 5643 5641 5638 5635 5633 5631 5629 5627 5626 5624 5623 5621 5620 5619 5617 5615 5613 5611
5628 5635 5636 5640 5647 5651 5652 5653 5654 5654 5652 5652 5651 5649 5647 5646 5645 5645 5645 5645 5643 5642 5641 5640 5638 5637 5636 5634 5632 5629 5627 5626 5624 5622 5620 5619 5617 5616 5615 5614 5613 5611 5609 5606
5627 5631 5632 5635 5638 5641 5642 5644 5645 5645 5644 5642 5642 5641 5639 5637 5637 5637 5637 5637 5636 5635 5634 5632 5631 5629 5629 5628 5626 5623 5621 5620 5618 5616 5615 5613 5611 5610 5609 5608 5607 5605 5603 5602
5620 5622 5622 5624 5626 5630 5632 5633 5635 5635 5635 5634 5633 5632 5631 5630 5629 5628 5628 5629 5629 5628 5627 5625 5623 5622 5622 5621 5619 5617 5615 5614 5612 5610 5609 5607 5606 5604 5603 5602 5601 5600 5599 5597
5608 5611 5612 5614 5616 5618 5620 5621 5622 5622 5623 5623 5623 5623 5622 5621 5620 5621 5621 5622 5621 5620 5619 5618 5616 5615 5615 5614 5612 5610 5609 5607 5606 5604 5602 5601 5600 5599 5598 5597 5596 5595 5594 5593
5596 5600 5603 5605 5606 5607 5609 5611 5611 5611 5613 5613 5614 5614 5614 5613 5613 5613 5613 5613 5612 5612 5611 5610 5609 5609 5608 5607 5605 5603 5602 5601 5600 5598 5597 5596 5595 5594 5593 5591 5590 5589 5588 5587
5587 5589 5591 5594 5596 5597 5599 5601 5602 5603 5604 5605 5605 5606 5606 5606 5605 5605 5605 5605 5605 5604 5604 5602 5602 5602 5601 5600 5598 5596 5594 5593 5592 5592 5591 5590 5589 5588 5587 5586 5585 5584 5583 5582
5583 5584 5586 5587 5588 5590 5591 5593 5594 5595 5596 5597 5598 5598 5598 5597 5596 5596 5597 5596 5596 5596 5596 5596 5596 5595 5594 5592 5590 5589 5587 5586 5585 5585 5585 5584 5583 5583 5582 5581 5580 5580 5579 5578
5574 5576 5577 5580 5581 5582 5583 5585 5586 5587 5588 5589 5589 5589 5589 5589 5589 5588 5589 5588 5587 5587 5588 5589 5588 5587 5586 5585 5584 5582 5581 5580 5579 5578 5577 5577 5577 5577 5576 5576 5575 5575 5574 5573
5566 5568 5570 5571 5573 5575 5576 5577 5579 5580 5580 5581 5581 5580 5580 5580 5581 5581 5581 5580 5580 5580 5581 5581 5581 5580 5580 5579 5577 5576 5575 5574 5573 5571 5571 5571 5571 5571 5571 5570 5570 5570 5570 5569
5558 5560 5561 5563 5564 5566 5568 5569 5570 5571 5571 5572 5572 5572 5572 5572 5573 5574 5572 5572 5574 5574 5574 5574 5573 5573 5573 5572 5570 5569 5569 5568 5567 5566 5565 5565 5565 5566 5566 5566 5566 5566 5565 5564
5549 5551 5552 5554 5555 5556 5558 5560 5562 5563 5563 5564 5564 5564 5564 5564 5565 5565 5565 5564 5566 5566 5566 5566 5566 5565 5566 5565 5564 5563 5562 5561 5561 5560 5560 5559 5560 5560 5561 5561 5561 5561 5561 5560
5540 5542 5543 5545 5546 5548 5550 5552 5553 5555 5556 5556 5556 5556 5556 5556 5556 5557 5557 5558 5559 5559 5558 5558 5558 5557 5557 5557 5557 5556 5555 5555 5554 5554 5554 5554 5555 5555 5556 5557 5557 5557 5557 5556
5532 5534 5535 5537 5539 5540 5541 5543 5545 5546 5547 5548 5549 5550 5549 5549 5550 5550 5550 5551 5551 5551 5551 5550 5550 5550 5549 5550 5549 5549 5548 5548 5548 5548 5548 5548 5549 5550 5550 5551 5552 5552 5552 5551
5525 5526 5528 5530 5531 5532 5533 5534 5536 5538 5540 5541 5542 5542 5543 5543 5543 5544 5545 5544 5544 5544 5544 5544 5543 5542 5542 5542 5542 5542 5541 5541 5541 5541 5542 5542 5543 5543 5544 5545 5546 5546 5547 5547
5517 5519 5520 5521 5523 5524 5525 5526 5528 5530 5532 5533 5534 5535 5536 5537 5538 5538 5538 5538 5538 5537 5537 5536 5536 5535 5535 5535 5534 5534 5534 5534 5534 5534 5535 5536 5536 5537 5538 5539 5540 5540 5541 5541
5510 5512 5513 5514 5516 5517 5518 5519 5521 5522 5523 5524 5525 5527 5529 5530 5531 5532 5532 5532 5531 5531 5530 5530 5529 5529 5528 5527 5527 5527 5527 5527 5527 5528 5529 5529 5530 5530 5531 5532 5533 5533 5534 5534